Kalamazoo, MI

4:08 AM EST on November 23, 2017 (GMT -0500)
Kalamazoo-Battle Creek International

Weather History for KAZO - February, 2012

Change the Weather History Date:

Thursday, February 9, 2012

  Actual Average Record
Temperature  
Mean Temperature 29 °F 26 °F  
Max Temperature 37 °F 33 °F 51 °F (1966)
Min Temperature 20 °F 19 °F -6 °F (1979)
Degree Days  
Heating Degree Days 36 39  
Month to date heating degree days 359  
Since 1 July heating degree days 4067  
Cooling Degree Days 0 0  
Month to date cooling degree days 0  
Year to date cooling degree days 0  
Moisture  
Dew Point 19 °F    
Average Humidity 71    
Maximum Humidity 89    
Minimum Humidity 39    
Precipitation  
Precipitation 0.00 in 0.04 in 1.21 in (2001)
Month to date precipitation T 0.38  
Year to date precipitation 2.17  
Sea Level Pressure  
Sea Level Pressure 30.21 in    
Wind  
Wind Speed 9 mph (SW)    
Max Wind Speed 17 mph    
Max Gust Speed 23 mph    
Visibility 10 miles    
Events      
T = Trace of Precipitation, MM = Missing Value Source: NWS Daily Summary

Daily Weather History Graph

Daily Weather History Graph

Search for Another Location

Airport or City:

Trip Planner

Search our weather history database for the weather conditions in past years. The results will help you decide how hot, cold, wet, or windy it might be!

Date:

Astronomy

Feb. 09, 2012 Rise Set
Actual Time 7:46 AM EST 6:06 PM EST
Civil Twilight 7:17 AM EST 6:35 PM EST
Nautical Twilight 6:44 AM EST 7:08 PM EST
Astronomical Twilight 6:12 AM EST 7:41 PM EST
Moon 8:38 PM EST (2/9) 8:19 AM EST (2/9)
Length of Visible Light 11h 17m
Length of Day
10h 19m
Waning Gibbous, 96% of the Moon is Illuminated
Feb 9
Waning Gibbous
Feb 14
Last Quarter
Feb 21
New
Feb 29
First Quarter
Mar 8
Full

Hourly Weather History & Observations

Time (EST) Temp. Windchill Dew Point Humidity Pressure Visibility Wind Dir Wind Speed Gust Speed Precip Events Conditions
12:53 AM 21.9 °F 15.7 °F 18.0 °F 85% 30.28 in 10.0 mi SSW 4.6 mph - N/A   Clear
1:53 AM 23.0 °F 17.0 °F 19.0 °F 85% 30.27 in 10.0 mi SW 4.6 mph - N/A   Clear
2:53 AM 24.1 °F 18.2 °F 19.0 °F 81% 30.26 in 10.0 mi SW 4.6 mph - N/A   Clear
3:53 AM 23.0 °F 17.0 °F 18.0 °F 81% 30.26 in 10.0 mi SW 4.6 mph - N/A   Clear
4:53 AM 21.9 °F 13.4 °F 19.0 °F 89% 30.25 in 10.0 mi SSW 6.9 mph - N/A   Clear
5:53 AM 21.9 °F 13.4 °F 18.0 °F 85% 30.26 in 10.0 mi SSW 6.9 mph - N/A   Clear
6:53 AM 21.0 °F 13.4 °F 18.0 °F 88% 30.25 in 10.0 mi SSW 5.8 mph - N/A   Clear
7:53 AM 21.9 °F 11.0 °F 18.0 °F 85% 30.26 in 7.0 mi SSW 10.4 mph - N/A   Clear
8:53 AM 24.1 °F 15.2 °F 19.9 °F 84% 30.26 in 7.0 mi SSW 8.1 mph - N/A   Clear
9:53 AM 27.0 °F 18.7 °F 21.9 °F 81% 30.27 in 10.0 mi SW 8.1 mph - N/A   Clear
10:53 AM 30.9 °F 20.7 °F 21.9 °F 69% 30.26 in 10.0 mi WSW 13.8 mph 20.7 mph N/A   Clear
11:53 AM 32.0 °F 22.1 °F 21.0 °F 64% 30.27 in 10.0 mi WSW 13.8 mph - N/A   Scattered Clouds
12:53 PM 34.0 °F 25.0 °F 19.9 °F 56% 30.23 in 10.0 mi SW 12.7 mph - N/A   Clear
1:53 PM 35.1 °F 25.9 °F 18.0 °F 50% 30.20 in 10.0 mi WSW 13.8 mph 18.4 mph N/A   Clear
2:53 PM 36.0 °F 27.5 °F 12.9 °F 39% 30.17 in 10.0 mi WSW 12.7 mph 21.9 mph N/A   Clear
3:53 PM 36.0 °F 27.5 °F 14.0 °F 41% 30.17 in 10.0 mi SW 12.7 mph - N/A   Clear
4:53 PM 35.1 °F 25.9 °F 17.1 °F 48% 30.15 in 10.0 mi SW 13.8 mph - N/A   Clear
5:53 PM 30.9 °F 22.2 °F 19.0 °F 61% 30.15 in 10.0 mi SSW 10.4 mph - N/A   Clear
6:53 PM 30.0 °F 21.7 °F 18.0 °F 61% 30.15 in 10.0 mi SSW 9.2 mph - N/A   Clear
7:53 PM 28.9 °F 19.2 °F 19.0 °F 67% 30.15 in 10.0 mi SW 11.5 mph - N/A   Clear
8:53 PM 27.0 °F 18.7 °F 19.0 °F 72% 30.15 in 10.0 mi SSW 8.1 mph - N/A   Clear
9:53 PM 27.0 °F 18.0 °F 19.9 °F 75% 30.14 in 10.0 mi SSW 9.2 mph - N/A   Clear
10:53 PM 27.0 °F 17.3 °F 19.9 °F 75% 30.13 in 10.0 mi SSW 10.4 mph - N/A   Partly Cloudy
11:53 PM 27.0 °F 17.3 °F 19.9 °F 75% 30.11 in 10.0 mi SW 10.4 mph - N/A   Partly Cloudy